Location: Gorze? G�rny
(49.8500°N, 19.5000°E)
Time: 05:21:11
(UTC+00:00)

Cosmos 2082 Rocket - Pass Details

Date: 13 May 2021
Orbit: 834 x 853 km, 71.0° (Epoch: 20 June)

Event Time Altitude Azimuth Distance (km) Brightness Sun altitude
Rises 21:07:45 0° 323° (NW) 3,393 6.8 -18.7°
Reaches altitude 10° 21:10:33 10° 311° (NW) 2,455 5.5 -18.8°
Maximum altitude 21:15:04 26° 257° (WSW) 1,607 3.7 -19.1°
Enters shadow 21:18:05 17° 215° (SW) 2,023 3.8 -19.3°
